Regional Weather Roundup
Issued by NWS Little Rock, AR

Home | Current Version | Previous Version | Text Only | Print | Product List | Glossary Off
Versions: 1 2 3 4 5 6 7 8 9 10 11 12 13 14 15 16 17 18 19 20 21 22 23 24 25 26 27 28 29 30 31 32 33 34 35 36 37 38 39 40 41 42 43 44 45 46 47 48 49 50

000
ASUS44 KLZK 150605
RWRLZK

WEATHER ROUNDUP FOR ARKANSAS
NATIONAL WEATHER SERVICE LITTLE ROCK AR
100 AM CDT MON SEP 15 2014

NOTE: "FAIR" INDICATES FEW OR NO CLOUDS BELOW 12,000 FEET WITH NO
SIGNIFICANT WEATHER AND/OR OBSTRUCTIONS TO VISIBILITY.

ARZ001-003-010-029-150700-
NORTHWEST ARKANSAS

CITY           SKY/WX    TMP DP  RH WIND       PRES   REMARKS
FAYETTEVILLE   CLOUDY    62  60  93 CALM      30.16F
6HR MIN TEMP:  62; 6HR MAX TEMP:  69;

FORT SMITH     CLOUDY    67  61  81 NE3       30.15S
6HR MIN TEMP:  67; 6HR MAX TEMP:  74; 6HR PCP: TRACE;

HARRISON       MOCLDY    62  60  93 SE7       30.18F
6HR MIN TEMP:  61; 6HR MAX TEMP:  71;

BENTONVILLE    CLOUDY    64  57  77 S6        30.16S
6HR MIN TEMP:  64; 6HR MAX TEMP:  73;

ROGERS         MOCLDY    65  57  75 SE7       30.16F
6HR MIN TEMP:  64; 6HR MAX TEMP:  74;

SILOAM SPGS    CLOUDY    64  55  72 SE3       30.16S
6HR MIN TEMP:  63; 6HR MAX TEMP:  72;

HIGHFILL       CLOUDY    64  58  80 S3        30.15F
6HR MIN TEMP:  63; 6HR MAX TEMP:  72;

$$

ARZ004-005-016-150700-
NORTH CENTRAL ARKANSAS

CITY           SKY/WX    TMP DP  RH WIND       PRES   REMARKS
BATESVILLE     MOCLDY    59  54  82 CALM      30.18S
6HR MIN TEMP:  59; 6HR MAX TEMP:  72;

FLIPPIN        MOCLDY    61  54  77 CALM      30.18F
6HR MIN TEMP:  61; 6HR MAX TEMP:  72;

MTN HOME       MOCLDY    62  54  74 SE5       30.18S
6HR MIN TEMP:  61; 6HR MAX TEMP:  70;

$$

ARZ040-041-150700-
WEST CENTRAL ARKANSAS

CITY           SKY/WX    TMP DP  RH WIND       PRES   REMARKS
MENA           CLOUDY    66  64  94 CALM      30.18F
MOUNT IDA      CLOUDY    65  63  93 CALM      30.16S
6HR MIN TEMP:  64; 6HR MAX TEMP:  71;

$$

ARZ009-017-025-026-028-150700-
NORTHEAST ARKANSAS

CITY           SKY/WX    TMP DP  RH WIND       PRES   REMARKS
CORNING          N/A     57  57 100 CALM      30.18F
JONESBORO      PTCLDY    59  56  89 NE3       30.17F
6HR MIN TEMP:  57; 6HR MAX TEMP:  70;

NEWPORT        PTCLDY    62  58  87 CALM      30.19S
6HR MIN TEMP:  61; 6HR MAX TEMP:  72; 6HR PCP: TRACE;

WALNUT RIDGE   PTCLDY    57  55  94 CALM      30.17F
6HR MIN TEMP:  55; 6HR MAX TEMP:  66;

BLYTHEVILLE    CLEAR     59  58  96 CALM      30.18F
6HR MIN TEMP:  59; 6HR MAX TEMP:  67;

$$

ARZ022-023-033-042-044-150700-
CENTRAL ARKANSAS

CITY           SKY/WX    TMP DP  RH WIND       PRES   REMARKS
LITTLE ROCK    CLOUDY    67  58  72 NE3       30.17F
6HR MIN TEMP:  65; 6HR MAX TEMP:  74;

N LITTLE ROCK    N/A     66  59  79 NE5       30.17F
6HR MIN TEMP:  64; 6HR MAX TEMP:  73;

JACKSONVILLE   CLOUDY    63  60  89 CALM      30.17F
6HR MIN TEMP:  62; 6HR MAX TEMP:  74;

SEARCY         CLOUDY    64  58  81 N3        30.19S
6HR MIN TEMP:  61; 6HR MAX TEMP:  72;

HOT SPRINGS    MOCLDY    65  59  81 CALM      30.18S
6HR MIN TEMP:  65; 6HR MAX TEMP:  75;

RUSSELLVILLE   CLOUDY    64  61  90 CALM      30.17F
6HR MIN TEMP:  62; 6HR MAX TEMP:  69;

CLINTON        FAIR      59  59 100 CALM      30.20S
$$

ARZ036-150700-
EAST ARKANSAS

CITY           SKY/WX    TMP DP  RH WIND       PRES   REMARKS
WEST MEMPHIS   PTCLDY    63  60  90 CALM      30.16F
6HR MIN TEMP:  62; 6HR MAX TEMP:  71;

$$

ARZ050-053-066-070-073-150700-
SOUTHWEST ARKANSAS

CITY           SKY/WX    TMP DP  RH WIND       PRES   REMARKS
ARKADELPHIA    FAIR      65  64  96 CALM      30.17S
6HR MIN TEMP:  64; 6HR MAX TEMP:  75;

CAMDEN         PTCLDY    63  59  88 CALM      30.16S FOG
TEXARKANA      MOCLDY    66  65  96 E3        30.15F
6HR MIN TEMP:  66; 6HR MAX TEMP:  75;

EL DORADO      PTCLDY    66  63  90 CALM      30.15F
6HR MIN TEMP:  66; 6HR MAX TEMP:  75;

DE QUEEN       MOCLDY    67  66  97 CALM      30.14F FOG
6HR MIN TEMP:  67; 6HR MAX TEMP:  76;

$$

ARZ056-057-069-150700-
SOUTHEAST ARKANSAS

CITY           SKY/WX    TMP DP  RH WIND       PRES   REMARKS
PINE BLUFF     MOCLDY    64  59  83 CALM      30.16F
6HR MIN TEMP:  64; 6HR MAX TEMP:  72;

STUTTGART      CLOUDY    64  57  77 NE5       30.17S
6HR MIN TEMP:  64; 6HR MAX TEMP:  72;

MONTICELLO     MOCLDY    66  60  81 CALM      30.16S
6HR MIN TEMP:  66; 6HR MAX TEMP:  76;


$$





USA.gov is the U.S. government's official web portal to all federal, state and local government web resources and services.